Date String (YYYY-MM-DD hh:mm:ss) UTC,Instrument flags,absolute air pressure of the measurement (hPa),sample flow rate (lpm),inlet stack bypass flow (lpm),air temperature of the measurement (°C),ambient temperature measured by the external sensor (°C),aerosol sample conditioner tube jacket temperature (°C),OPC LED temperature (°C),internal box temperature (°C),relative humidity of the measurement (%),span deviation,mass concentration of particles derived from Lorenz-Mie calculation of OPC scattering (μg/m³),mass concentration of particles derived from Lorenz-Mie calculation of OPC scattering (μg/m³),mass concentration of particles derived from Lorenz-Mie calculation of OPC scattering (μg/m³)
DateTimeUTC,F1_M11,P_M11,Q1_M11,Q2_M11,T1_M11,T2_M11,T3_M11,T4_M11,T5_M11,U1_M11,ZSPAN_M11,X0_M11,X2_M11,X1_M11
2024-05-19 00:00:00,SystemResetWarning,0828.1,5.00,000.00,023.8,023.2,000.0,031.9,025.7,028.2,0000.0,0011.28,0004.87,0003.25
2024-05-19 00:01:00,SystemResetWarning,0828.0,5.00,000.00,023.9,023.4,000.0,032.0,025.9,026.8,0000.0,0011.88,0004.86,0003.25
2024-05-19 00:02:00,SystemResetWarning,0828.0,5.00,000.00,024.0,023.6,000.0,032.0,026.0,026.2,0000.0,0011.94,0004.76,0003.23
2024-05-19 00:03:00,SystemResetWarning,0827.9,5.00,000.00,024.1,023.7,000.0,032.0,026.1,025.6,0000.0,0012.29,0004.73,0003.22
2024-05-19 00:04:00,SystemResetWarning,0828.0,5.00,000.00,024.2,023.8,000.0,032.1,026.2,025.3,0000.0,0012.44,0004.67,0003.21
2024-05-19 00:05:00,SystemResetWarning,0828.0,5.01,000.00,024.2,023.9,000.0,032.1,026.3,025.1,0000.0,0012.60,0004.65,0003.21
2024-05-19 00:06:00,SystemResetWarning,0827.8,4.99,000.00,024.3,023.8,000.0,032.2,026.2,025.2,0000.0,0012.66,0004.61,0003.21
2024-05-19 00:07:00,SystemResetWarning,0827.8,5.00,000.00,024.1,022.2,000.0,032.3,025.2,024.9,0000.0,0012.99,0004.55,0003.20
2024-05-19 00:08:00,SystemResetWarning,0827.8,5.01,000.00,023.8,021.7,000.0,032.3,024.9,025.4,0000.0,0013.00,0004.51,0003.18
2024-05-19 00:09:00,SystemResetWarning,0827.7,4.99,000.00,023.8,022.0,000.0,032.2,025.1,025.7,0000.0,0013.00,0004.51,0003.19
2024-05-19 00:10:00,SystemResetWarning,0827.8,4.99,000.00,023.8,022.3,000.0,032.2,025.3,024.3,0000.0,0013.13,0004.56,0003.19
2024-05-19 00:11:00,SystemResetWarning,0827.7,4.99,000.00,023.9,022.6,000.0,032.1,025.5,024.8,0000.0,0012.80,0004.47,0003.15
2024-05-19 00:12:00,SystemResetWarning,0827.7,5.00,000.00,023.9,022.9,000.0,032.1,025.6,024.5,0000.0,0012.12,0004.44,0003.14
2024-05-19 00:13:00,SystemResetWarning,0827.7,5.01,000.00,024.0,023.2,000.0,032.1,025.8,024.8,0000.0,0011.98,0004.46,0003.13
2024-05-19 00:14:00,SystemResetWarning,0827.7,5.01,000.00,024.1,023.4,000.0,032.1,026.0,025.0,0000.0,0011.37,0004.44,0003.12
2024-05-19 00:15:00,SystemResetWarning,0827.7,5.00,000.00,024.1,023.6,000.0,032.2,026.0,024.5,0000.0,0011.07,0004.42,0003.10
2024-05-19 00:16:00,SystemResetWarning,0827.7,4.98,000.00,024.2,023.7,000.0,032.2,026.1,024.0,0000.0,0010.60,0004.32,0003.04
2024-05-19 00:17:00,SystemResetWarning,0827.7,5.00,000.00,024.3,023.9,000.0,032.2,026.3,023.0,0000.0,0009.99,0004.24,0002.99
2024-05-19 00:18:00,SystemResetWarning,0827.6,4.99,000.00,024.3,023.4,000.0,032.3,026.0,023.6,0000.0,0009.09,0004.17,0002.94
2024-05-19 00:19:00,SystemResetWarning,0827.5,5.00,000.00,024.0,021.4,000.0,032.4,024.9,024.1,0000.0,0008.88,0004.10,0002.92
2024-05-19 00:20:00,SystemResetWarning,0827.4,5.01,000.00,023.6,020.6,000.0,032.4,024.4,024.7,0000.0,0008.74,0004.02,0002.87
2024-05-19 00:21:00,SystemResetWarning,0827.4,5.02,000.00,023.5,021.1,000.0,032.3,024.6,025.5,0000.0,0008.54,0003.94,0002.83
2024-05-19 00:22:00,SystemResetWarning,0827.4,5.00,000.00,023.5,021.5,000.0,032.2,024.8,025.1,0000.0,0008.50,0003.93,0002.82
2024-05-19 00:23:00,SystemResetWarning,0827.4,5.00,000.00,023.6,021.9,000.0,032.1,025.1,024.9,0000.0,0008.40,0003.95,0002.82
2024-05-19 00:24:00,SystemResetWarning,0827.4,5.00,000.00,023.6,022.3,000.0,032.0,025.2,024.2,0000.0,0008.04,0003.95,0002.82
2024-05-19 00:25:00,SystemResetWarning,0827.4,5.01,000.00,023.7,022.6,000.0,032.0,025.4,023.7,0000.0,0008.50,0003.95,0002.80
2024-05-19 00:26:00,SystemResetWarning,0827.4,5.00,000.00,023.8,022.9,000.0,032.0,025.5,023.7,0000.0,0008.62,0004.00,0002.78
2024-05-19 00:27:00,SystemResetWarning,0827.3,4.98,000.00,023.9,023.1,000.0,032.0,025.7,023.8,0000.0,0008.70,0004.07,0002.78
2024-05-19 00:28:00,SystemResetWarning,0827.3,5.01,000.00,023.9,023.4,000.0,032.0,025.8,023.9,0000.0,0008.72,0004.07,0002.80
2024-05-19 00:29:00,SystemResetWarning,0827.3,5.01,000.00,024.0,023.5,000.0,032.0,026.0,023.9,0000.0,0008.92,0004.13,0002.82
2024-05-19 00:30:00,SystemResetWarning,0827.2,5.00,000.00,024.1,023.7,000.0,032.1,026.0,024.0,0000.0,0008.78,0004.11,0002.83
2024-05-19 00:31:00,SystemResetWarning,0827.2,4.99,000.00,024.2,023.8,000.0,032.1,026.1,024.0,0000.0,0008.84,0004.09,0002.84
2024-05-19 00:32:00,SystemResetWarning,0827.3,4.99,000.00,024.3,024.0,000.0,032.1,026.2,024.0,0000.0,0009.25,0004.16,0002.85
2024-05-19 00:33:00,SystemResetWarning,0827.2,4.99,000.00,024.3,023.4,000.0,032.2,025.9,024.6,0000.0,0009.54,0004.24,0002.88
2024-05-19 00:34:00,SystemResetWarning,0827.1,5.01,000.00,023.9,021.4,000.0,032.3,024.8,024.8,0000.0,0009.54,0004.27,0002.89
2024-05-19 00:35:00,SystemResetWarning,0827.1,5.01,000.00,023.6,020.7,000.0,032.3,024.4,024.8,0000.0,0009.82,0004.25,0002.91
2024-05-19 00:36:00,SystemResetWarning,0827.1,5.01,000.00,023.5,021.1,000.0,032.2,024.6,025.7,0000.0,0009.63,0004.25,0002.92
2024-05-19 00:37:00,SystemResetWarning,0827.1,4.99,000.00,023.5,021.5,000.0,032.1,024.8,025.6,0000.0,0010.16,0004.27,0002.96
2024-05-19 00:38:00,SystemResetWarning,0827.1,4.99,000.00,023.6,021.9,000.0,032.0,025.1,025.5,0000.0,0010.20,0004.25,0002.99
2024-05-19 00:39:00,SystemResetWarning,0827.1,5.01,000.00,023.6,022.3,000.0,032.0,025.3,025.1,0000.0,0010.32,0004.28,0003.02
2024-05-19 00:40:00,SystemResetWarning,0827.1,5.01,000.00,023.7,022.7,000.0,031.9,025.4,025.6,0000.0,0010.26,0004.28,0003.06
2024-05-19 00:41:00,SystemResetWarning,0827.1,5.00,000.00,023.8,022.9,000.0,031.9,025.6,024.8,0000.0,0010.64,0004.30,0003.08
2024-05-19 00:42:00,SystemResetWarning,0827.1,5.00,000.00,023.9,023.2,000.0,032.0,025.7,024.9,0000.0,0010.92,0004.37,0003.09
2024-05-19 00:43:00,SystemResetWarning,0827.1,5.00,000.00,024.0,023.4,000.0,032.0,025.8,024.6,0000.0,0010.71,0004.37,0003.12
2024-05-19 00:44:00,SystemResetWarning,0827.1,5.00,000.00,024.0,023.6,000.0,032.0,026.0,024.1,0000.0,0010.59,0004.35,0003.12
2024-05-19 00:45:00,SystemResetWarning,0827.1,5.00,000.00,024.1,023.7,000.0,032.0,026.1,023.7,0000.0,0010.75,0004.36,0003.12
2024-05-19 00:46:00,SystemResetWarning,0827.1,5.00,000.00,024.2,023.9,000.0,032.1,026.2,023.7,0000.0,0010.60,0004.41,0003.12
2024-05-19 00:47:00,SystemResetWarning,0827.1,5.00,000.00,024.3,024.0,000.0,032.1,026.3,024.2,0000.0,0010.45,0004.43,0003.13
2024-05-19 00:48:00,SystemResetWarning,0827.1,4.98,000.00,024.3,023.3,000.0,032.2,025.8,024.1,0000.0,0009.90,0004.41,0003.13
2024-05-19 00:49:00,SystemResetWarning,0827.1,5.00,000.00,024.0,021.8,000.0,032.3,025.1,024.4,0000.0,0009.81,0004.41,0003.12
2024-05-19 00:50:00,SystemResetWarning,0827.1,5.01,000.00,023.9,021.9,000.0,032.3,025.1,024.9,0000.0,0009.83,0004.42,0003.11
2024-05-19 00:51:00,SystemResetWarning,0827.1,4.99,000.00,023.8,022.2,000.0,032.2,025.2,025.3,0000.0,0009.83,0004.39,0003.09
2024-05-19 00:52:00,SystemResetWarning,0827.1,5.00,000.00,023.9,022.5,000.0,032.2,025.4,025.0,0000.0,0010.04,0004.39,0003.06
2024-05-19 00:53:00,SystemResetWarning,0827.1,5.00,000.00,024.0,022.8,000.0,032.1,025.6,024.9,0000.0,0010.22,0004.40,0003.02
2024-05-19 00:54:00,SystemResetWarning,0827.1,5.01,000.00,024.0,023.1,000.0,032.1,025.8,024.7,0000.0,0010.26,0004.38,0002.99
2024-05-19 00:55:00,SystemResetWarning,0827.1,5.01,000.00,024.1,023.3,000.0,032.1,025.9,025.1,0000.0,0010.18,0004.35,0002.97
2024-05-19 00:56:00,SystemResetWarning,0827.1,5.01,000.00,024.2,023.6,000.0,032.2,026.0,024.7,0000.0,0009.94,0004.28,0002.96
2024-05-19 00:57:00,SystemResetWarning,0827.1,5.00,000.00,024.2,023.7,000.0,032.2,026.1,024.5,0000.0,0009.75,0004.23,0002.93
2024-05-19 00:58:00,SystemResetWarning,0827.1,5.00,000.00,024.3,023.9,000.0,032.2,026.2,023.9,0000.0,0009.68,0004.19,0002.90
2024-05-19 00:59:00,SystemResetWarning,0827.1,4.99,000.00,024.4,024.0,000.0,032.3,026.3,024.6,0000.0,0009.77,0004.19,0002.89
